IW8PDD-3 Weather Reports


time (UTC)temp
C
wind
direction
speed
KPH
gust
KPH
rain 1hr
cm
rain 24hr
cm
rain mn
cm
humidity
%
barometer
mb
20260507233634 19 0.0 0.0 0.00 0.00 0.00 66 1011.2
20260507231630 19 0.0 0.0 0.00 0.00 0.00 66 1011.3
20260507223622 19 0.0 0.0 0.00 0.00 0.00 64 1010.8
20260507205559 20 0.0 0.0 0.00 0.00 0.00 59 1011.0
20260507203555 20 0.0 0.0 0.00 0.00 0.00 57 1010.4
20260507201550 21 0.0 0.0 0.00 0.00 0.00 56 1010.3
20260507195545 21 0.0 0.0 0.00 0.00 0.00 55 1010.3
20260507193541 21 0.0 0.0 0.00 0.00 0.00 55 1010.0
20260507191536 21 0.0 0.0 0.00 0.00 0.00 55 1009.9
20260507185532 21 0.0 0.0 0.00 0.00 0.00 55 1009.7
20260507181523 21 0.0 0.0 0.00 0.00 0.00 53 1009.4
20260507175518 21 0.0 0.0 0.00 0.00 0.00 53 1009.4
20260507173514 21 0.0 0.0 0.00 0.00 0.00 52 1009.7
20260507171510 21 0.0 0.0 0.00 0.00 0.00 52 1009.6
20260507165505 22 0.0 0.0 0.00 0.00 0.00 51 1008.8
20260507163501 22 0.0 0.0 0.00 0.00 0.00 49 1008.4
20260507161456 23 0.0 0.0 0.00 0.00 0.00 49 1008.4
20260507155451 24 0.0 0.0 0.00 0.00 0.00 47 1008.4
20260507153447 23 0.0 0.0 0.00 0.00 0.00 47 1008.6
20260507151442 26 0.0 0.0 0.00 0.00 0.00 45 1008.4
20260507145438 26 0.0 0.0 0.00 0.00 0.00 45 1008.7
20260507141421 25 0.0 0.0 0.00 0.00 0.00 45 1009.5
20260507135416 25 0.0 0.0 0.00 0.00 0.00 44 1009.7
20260507133412 26 0.0 0.0 0.00 0.00 0.00 43 1010.2
20260507131407 27 0.0 0.0 0.00 0.00 0.00 41 1010.3
20260507125403 27 0.0 0.0 0.00 0.00 0.00 41 1010.3
20260507123400 27 0.0 0.0 0.00 0.00 0.00 40 1010.2
20260507121357 27 0.0 0.0 0.00 0.00 0.00 40 1010.5
20260507115353 28 0.0 0.0 0.00 0.00 0.00 39 1010.7
20260507113350 28 0.0 0.0 0.00 0.00 0.00 39 1010.6
20260507111346 28 0.0 0.0 0.00 0.00 0.00 39 1010.6
20260507105343 27 0.0 0.0 0.00 0.00 0.00 40 1010.5
20260507103339 26 0.0 0.0 0.00 0.00 0.00 42 1010.8
20260507102630 26 0.0 0.0 0.00 0.00 0.00 43 1010.8
20260507100626 26 0.0 0.0 0.00 0.00 0.00 44 1010.8
20260507094622 26 0.0 0.0 0.00 0.00 0.00 46 1010.8
20260507092618 25 0.0 0.0 0.00 0.00 0.00 50 1011.1
20260507090614 22 0.0 0.0 0.00 0.00 0.00 57 1011.3
20260507084610 21 0.0 0.0 0.00 0.00 0.00 58 1011.7
20260507082606 21 0.0 0.0 0.00 0.00 0.00 59 1012.0
20260507080602 20 0.0 0.0 0.00 0.00 0.00 60 1012.5
20260507072554 20 0.0 0.0 0.00 0.00 0.00 63 1013.2
20260507070550 20 0.0 0.0 0.00 0.00 0.00 64 1013.2
20260507064546 20 0.0 0.0 0.00 0.00 0.00 65 1013.8
20260507062542 20 0.0 0.0 0.00 0.00 0.00 66 1014.0
20260507060538 19 0.0 0.0 0.00 0.00 0.00 67 1014.1
20260507054534 18 0.0 0.0 0.00 0.00 0.00 68 1013.8
20260507052530 18 0.0 0.0 0.00 0.00 0.00 68 1014.0
20260507050526 17 0.0 0.0 0.00 0.00 0.00 69 1013.9
20260507044522 18 0.0 0.0 0.00 0.00 0.00 69 1014.3
20260507040514 17 0.0 0.0 0.00 0.00 0.00 68 1014.3
20260507034510 17 0.0 0.0 0.00 0.00 0.00 68 1014.3
20260507032506 17 0.0 0.0 0.00 0.00 0.00 68 1014.1
20260507024459 18 0.0 0.0 0.00 0.00 0.00 68 1013.9
20260507022455 17 0.0 0.0 0.00 0.00 0.00 69 1014.2
20260507020451 17 0.0 0.0 0.00 0.00 0.00 67 1014.1
20260507014447 18 0.0 0.0 0.00 0.00 0.00 66 1014.1
20260507012443 18 0.0 0.0 0.00 0.00 0.00 67 1014.4
20260507010439 18 0.0 0.0 0.00 0.00 0.00 67 1014.5
20260507004435 18 0.0 0.0 0.00 0.00 0.00 65 1014.4
20260507000427 18 0.0 0.0 0.00 0.00 0.00 62 1014.4